NAOS

operational
NORAD ID: 65317 Int'l Des: 2025-188 Owner: LUXDD/LUXEO Country: L
LEOCIRCULARRETROGRADESSO

About NAOS

Description loading...

Live Position

Loading 3D Globe...

Upcoming Passes

Altitude History

Altitude vs Time

uPlot chart will show altitude changes over time

Two-Line Element Set

1 65317U 25188C 25312.80118020 .00027368 00000-0 71335-3 0 9997
2 65317 97.2448 26.4302 0000946 276.8562 83.2576 15.38820681 11375
Epoch: Nov 8, 2025 • Age: 34 hours

Current Status

Altitude 475.4 km
Velocity 7.63 km/s
Sub-Earth Point -71.95°S, 58.91°E
Launch Date Aug 26, 2025
Age 0.2 years
Type other

Technical Details

Classification Payload
Mass 645.00 kg
Dry Mass 645.00 kg
Total Mass 645.00 kg
Length 3.00 m
Diameter 1.80 m
Span 10.00 m
Shape Hex Cyl + 2 pan
Manufacturer OHBI
Bus Type NAOS
Phase Status In Orbit
Owner/State LUXDD/LUXEO/L

Large Constellations

Loading constellations...